[Date Prev][Date Next][Thread Prev][Thread Next][Date Index][Thread Index]

[jamsat-news:1095] jas2info



========================   最新情報   ==============================

        Last updated :Fri.28-May.-1999 19:10 (JST) #139

====================================================================
   
     衛星情報 FOシリーズの軌道要素、テレメトリ、QSOの状況等を
   まとめてみました.

  1)  FO−29(ふじ3号)は、5月28日(金)14:43(JST)の
     パスではJARLのホームページのJAS−2「最新情報」のとうり
     JAアナログモードで運用されていました. 
       
 ■ 軌道要素1:「jamsat−keps:891」より
              SB KEPS @ AMSAT  $ORB99148.N
       2Line Orbital Elements 99148.AMSAT

  HR AMSAT ORBITAL ELEMENTS FOR AMATEUR SATELLITES IN NASA FORMAT
  FROM WA5QGD FORT WORTH,TX May 28, 1999
  SEND SUBSCRIBE/UNSUBSCRIBE TO majordomo@amsat.org ONLY
  BID: ORB99148.N
  
 DECODE 2-LINE ELSETS WITH THE FOLLOWING KEY:
 1 AAAAAU 00  0  0 BBBBB.BBBBBBBB  .CCCCCCCC  00000-0  00000-0 0  DDDZ
 2 AAAAA EEE.EEEE FFF.FFFF GGGGGGG HHH.HHHH III.IIII JJ.JJJJJJJJKKKKKZ
 KEY: A-CATALOGNUM B-EPOCHTIME C-DECAY D-ELSETNUM E-INCLINATION F-RAAN
 G-ECCENTRICITY H-ARGPERIGEE I-MNANOM J-MNMOTION K-ORBITNUM Z-CHECKSUM

 TO ALL RADIO AMATEURS BT

  FO-29
  1 24278U 96046B   99145.94660274 -.00000006  00000-0  28252-4 0 02784
  2 24278 098.5600 100.0671 0351865 151.6487 210.4291 13.52667765136803

 ■ 軌道要素2:「jamsat−keps:891」より        (No.892 ?)
                 SB KEPS @ AMSAT  $ORB99148.O
         Orbital Elements  99148.OSCAR

  HR AMSAT ORBITAL ELEMENTS FOR OSCAR SATELLITES
  FROM WA5QGD FORT WORTH,TX May 28, 1999
  SEND SUBSCRIBE/UNSUBSCRIBE TO majordomo@amsat.org ONLY
  BID: ORB99148.O
  TO ALL RADIO AMATEURS BT

  Satellite: FO-29
  Catalog number: 24278
  Epoch time:      99145.94660274
  Element set:    0278
  Inclination:      098.5600 deg
  RA of node:       100.0671 deg
  Eccentricity:    0.0351865
  Arg of perigee:   151.6487 deg
  Mean anomaly:     210.4291 deg
  Mean motion:   13.52667765 rev/day
  Decay rate:       -6.0e-08 rev/day^2
  Epoch rev:           13680
  Checksum:              324
 -----------------------------------------------------------
  2)FO−29(ふじ3号)の 5月28日(金)の14:46−15:02(JST)の
     パスではJAアナログモードのテレメトリの 一部分は次のようになっていました.
     同様に取得データも示しておきます.

  AS13712C  28May99
  JST 15:46 - 16:02

 HI HI AE C7 88 55 06 27 FF 0D 00 16 41 60 83 5F 85 92 A0 9A BA B8 BA BA B6 
 HI HI AE C7 88 55 0B 27 FF 0D 00 16 72 4A 7D 5F 90 91 A0 8C BA B8 BA BA B5 
 HI HI AE C7 88 55 10 27 FF 0D 00 16 81 47 7F 5F 92 91 9F 97 BA B8 BA BA B6 
 HI HI AE C7 88 55 15 27 FF 0D 00 16 57 4E 81 60 92 8F 9E 91 BA B8 B9 BA B6 
 HI HI AE C7 88 55 1A 27 FF 0D 00 16 4A 4C 77 60 94 90 B0 9B BA B8 B9 B9 B5 
 HI HI AE C7 88 55 00 27 FF 0D 00 16 59 47 7D 47 95 91 B0 8D BA B8 BA B9 B6 
 HI HI AE C7 88 55 05 27 FF 0D 00 16 55 3D 74 5F 93 90 B0 8F BA B8 B9 B9 B6 
 HI HI AE C7 88 55 0A 27 FF 0D 00 16 68 3C 80 45 95 91 B0 71 BA B7 B9 B9 B6 
 HI HI AE C7 88 55 0F 27 FF 0D 00 16 52 3E 83 60 93 90 B0 8A BA B7 B9 B9 B6 
 HI HI AE C7 88 55 14 27 FF 0D 00 16 56 42 81 60 93 8F 9F 77 BA B7 B9 B9 B6 
 HI HI AE C7 88 55 1A 27 FF 0D 00 16 77 47 79 47 96 91 B0 84 BA B7 B9 B9 B6 
 HI HI AE C7 88 55 1F 27 FF 0D 00 16 87 3F 84 60 94 91 B0 7B B9 B7 B9 B9 B6 
 HI HI AE C7 88 55 04 27 1E 0D 00 16 6A 33 8B 60 94 91 B0 8E B9 B7 B9 B9 B6 
 HI HI AE C7 88 55 09 26 FF 0D 00 16 47 3A 89 60 94 91 B0 81 B9 B7 B9 B9 B6 
 HI HI AE C7 88 55 0F 27 FF 0D 00 16 5A 51 7D 48 96 93 B0 74 B9 B7 B8 B9 B6 
 HI HI AE C7 88 55 14 27 FF 0D 00 15 5E 4A 78 5F 92 90 B0 72 B9 B7 B8 B8 B6 
 HI HI AE C7 88 55 19 27 FF 05 00 16                8F B0 84 B9 B7 B8 B8 B6 
 HI HI AE C7 88 55 1F 27 FF 0D 00 16 4D 30 8B 60 94 90 B0 A0 B9 B6 B8 B8 B6
 HI HI AE C7 88 55 E4 27 1E 0D 00 15 3B 50 84 60 93 90 B0 7F B9 B6 B8 B8 B6 
 HI HI AE C7 88 55 09 27 FF 0D 00 16 83 73 84 60 92 90 B0 83 B8 B6 B8 B8 B6 
 HI HI AE C7 88 55 0F 27 0A 0D 00 16  
 HI HI AE C7 88 55 14 27 FF 0D 00 16 5B 43 8F 5F 92 8F B0 88 B8 B6 B8 B8 B6 

  AS13711C   28May99
  JST  13:05 - 13:12




 HI HI AE C7 88 55 04 27 FF 0D 00 16 52 4C 79 61 94 91 B0 8E BA B8 B9 B9 B6 
 HI HI AE C7 88 55 09 27 FF 0D 00 16 4D 45 73 60 93 90 B0 89 B9 B7 B9 B9 B6
 HI HI AE 07 88 55 0F 27 0A 0D 00 16 64 3E 7C 60 93 90 B0 84 BA B7 B9 B9 B6 
 HI HI AE 07 88 55 14 27 FF 0D 00 16 7F 3A 83 60 93 90 B0 91 B9 B7 B9 B9 B6 
 HI HI AE C7 88 55 19 27 FF 0D 00 16 71 3D 8A 60 93 90 B0 6B B9 B7 B9 B9 B6 
 HI HI AE 07 88 55 1F 27 FF 0D 00 16 48 44 89 60 93 90 B0 64 B9 B7 B9 B9 B6 
 HI HI AE C7 88 55 04 27 FF 0D 00 16 44 4B 86 60 94 91 B0 78 B9 B7 B9 B9 B6 
 HI HI AE C7 88 55 09 27 FF 0D 00 16 77 4E 85 5F 92 90 B0 8A B9 B7 B8 B8 B6 
 HI HI AE C7 88 55 0F 27 FF 0D 00 16 95 44 8E 60 93 90 B0 79 B9 B7 B8 B8 B6 
 HI HI AE C7 88 55 14 27 FF 0D 00 16 5E 3C 8F 60 92 90 B0 7B B9 B7 B8 B8 B6 
 HI HI AE C7 88 55 19 27 FF 0D 00 16 31 4D 84 60 93 91 B0 86 B9 B6 B8 B8 B6 
 HI HI AE C7 88 55 1F 27 FF 0D 00 16 69 6B 7C 60 93 90 B0 6B B9 B6 B8 B8 B6 
 HI HI AE C7 88 55 04 27 FF 0D 00 16 A9 65 8A 5F 93 90 B0 7F B9 B6 B8 B8 B6 
  
  AS13699C1  27May99
  JST  15:46 - 15:55

 HI HI AE C7 88 51 0B 27 FF 0D 00 16 89 48 84 60 93 90 B0 76 B9 B6 B9 B9 B5 
 HI HI AE C7 88 51 11 27 FF 0D 00 16 75 4B 86 60 93 90 B0 7A B9 B8 B9 B9 B5 
 HI HI AE C7 88 51 16 27 FF 0D 00 16 55 3D 85 45 96 92 B0 5F B9 B7 B9 B9 B5 
 HI HI AE C7 88 51 1B 27 FF 0D 00 16 54 3D 81 60 93 90 B0 7D B9 B7 B9 B9 B5 
 HI HI AE C7 88 51 00 27 FF 1A 00 16 6C 35 8B 5F 95 92 A0 72 B9 B7 B9 B9 B5 
 HI HI AE C7 88 51 06 27 FF 0D 00 16    39 8B 60 93 90 B0 A7 B9 B7 B9 B9 B5 
 HI HI AE C7 88 55 1B 27 FF 0D 00 16 6E 46 8B 60 93 90 B0 8D B9 B7 B9 B8 B5 
 HI HI AE 07 88 51 10 27 FF 0D 00 16 4B 4B 7D 60 93 90 B0 77 B9 B7 B9 B8 B5 
 HI HI AE C7 88 51 16 27 FF 0D 00 16 47 3E 82 60 93 90 B0 75 B9 B7 B8 B8 B5 
 HI HI AE C7 88 51 1B 27 FF 1A 00 16 74 2E 81 5F 93 90 B0 95 B9 B7 B8 B8 B6
 HI HI AE C7 88 51 00 27 FF 0D 00 16 8C 39 82 60 93 90 B0 6F B9 B6 B8 B8 B5
  
  AS13697C   27May99
  JST  12:20 - 12:25
                                                             
 HI HI AE C7 88 55 03 1A FF 0D 00 16 9D 59 8D 60 92 90 B0 78 B8 B6 B7 B7 B5
 HI HI AE C7 88 55 08 1A FF 0D 00 16 55 6A 87 5F 92 90 B0 73 B8 B6 B7 B7 B5
 HI HI AE C7 88 55 0D 1A FF 0D 00 16 07 35 3F 59 92 90 B0 80 B8 B5 B7 B7 B5
 HI HI AE C7 88 55 12 1A FF 0D 00 16 7D 46 8D 5F 92 8F B0    B8 B5 B7 B7 B5
 HI HI AE C7 88 55 17 1A FF 0D 00 16 93 58    5E 92 90 B0 91 B7 B5 B7 B7 B5

  As13648C1  26May99
  JST  13:18 - 13:23

 HI HI AE C7 88 51 00 1A FF 0D 00 16 2A 55 82 60 93 90 B0 7A B8 B6 B8 B8 B6
 HI HI AE C7 88 51 02 1A FF 0D 00 16 5B 71 7B 5F 92 90 B0 78 B8 B6 B7 B7 B6 
 HI HI AE C7 88 51 07 1A FF 0D 00 16 AC 6C 85 60 93 90 B0 69 B8 B6 B7 B7 B6 
 HI HI AE C7 88 51 0C 1A FF 0D 00 16 7B 4D 8A 60 93 90 B1 72 B8 B5 B7 B7 B6
 
 3)JAアナログモード
    テレメトリの最後の行の換算値例   
   AS13712   28May99
    JST 15:46 - 16:02 のパス

   テレメトリ	内   容          換算値 単 位
 3C	磁気センサーZ軸=	44607.8	nT
 3D	磁気センサX軸	=	32843.1	nT
 4A	太陽電池発生電流=	 1402.0	mA
 4B	B充放電電流	=	 -138.0	mA
 4C	B端子電圧	=	   15.7	V
 4D	B中間端子電圧	=	    6.9	V
 5A	バス電圧	=	   17.3	V
 5B	JTA送信電力	=	  785.9	mW
 5C 	構体温度1	=	   10.4	℃
 5D	構体温度2	=	   11.2	℃
 6A	構体温度3	=	   10.4	℃
 6B	構体温度4	=	   10.4	℃
 6C	Bセル温度	=	   11.2	℃
  
 *計算処理は OFFICE 97 を使用.

 ==============================================================================
  4)FO−20(ふじ2号)のCWテレメトリは5月10日(月)18:27(JST)の
     パスではテレメトリーが単一トーンの連続音から唸りを伴った連続音、さらにゆらぎの
     ある信号になり、いままでより若干信号が弱くなっていました.

 -----------------------------  FO - 20 軌道要素 ----------------------------------
 
■ 軌道要素1 :出典は「ふじ3号」に同じ. 
  
  FO-20
 1 20480U 90013C   99146.11592962 -.00000034  00000-0 -12977-5 0  1432
 2 20480  99.0252 345.0378 0540211 214.5454 141.9412 12.83252169435509
 
 ■ 軌道要素2 :出典は「ふじ3号」に同じ.  
               
  Satellite: FO-20
 Catalog number: 20480
 Epoch time:      99146.11592962
 Element set:     143
 Inclination:       99.0252 deg
 RA of node:       345.0378 deg
 Eccentricity:    0.0540211
 Arg of perigee:   214.5454 deg
 Mean anomaly:     141.9412 deg
 Mean motion:   12.83252169 rev/day
 Decay rate:       -3.4e-07 rev/day^2
 Epoch rev:           43550
 Checksum:              280

  ====================    FO-20のFFTDSPの状況 ==========================
  
  JE9PEL/1局 脇田 美根夫氏がFO−209の信号のドップラーシフトの
  FFT分析表示例をFO-29の続き[jamsat-bb:4506]にレポートされていました
  ので転載させて頂きました.

 FO-20(JAS-1b)を、4〜5年ぶりに聞いてみました。
 仰角0度で、太平洋上をすれすれに飛ぶパスです。
 435.795MHz の CWビーコンは、SN比 10dB以下の
 単一トーンのキャリアのみとなっていました。
 FFTDSP による解析図は、下記URLを参照下さい。

 ----------------------------------------------
 Name : JE9PEL/1 脇田
 Mail : je9pel@jamsat.or.jp
 URL  : http://www.ne.jp/asahi/hamradio/je9pel/
 QTH  : Yokohama, Japan
 Date : 26 May. 1999
 ----------------------------------------------
    =====================================================================

 5)JARL のホームページに新しい運用追加予定が記載されていましたのでご紹介します.
       ( http://www.jarl.or.jp/Japanese/3_Fuji/uy.htm )

        ■ ふじ3号/FO−29 ■  
  
  ふじ3号(JAS−2) 運用予定      
  
 ☆☆デジトーカ運用を4月30日〜5月10日に運用☆☆ 

  *** 運用日程について ***
     
   5月17日 〜 5月24日     デジタル系1200bpsメールボックス運用
   5月24日 〜 5月31日     アナログ系運用

  *** 運用日程の変更について ***

 ☆4月28日からのデジトーカ運用は音声データのアップリンクが混信等の影響を受け
  てデータがUPしませんので予定を変更して,デジトーカ運用は4月30日から5月10日迄
   行うことと致します。

 ☆4月30日から5月6日に行うデジトーカ運用の音声送信メッセージは新データUP予定ですので
   お楽しみ下さい。

     ※運用日程の変更についても詳しく閲覧できるようになっていますので参照下さい.

        ■ ふじ2号/FO−20 ■      
            「ふじ2号」 現況                                                                                               
   JAS-1b/FO-20(ふじ2号)の不具合発生について
    JAS-1b(ふじ2号)のCWテレメトリ信号に,1997年10月12日12時
 (JST)の日本上空通過時,3桁の数字が繰り返されるはずが3個の長音の
  繰り返しとなっているという異常が発見されました。この不具合は次の通過時
  からは回復していましたが13日15時20分の通過時に再び観測されました。
  衛星のアナログ系中継モード動作は異常が無く,正常時のテレメトリ内容からは
  衛星の動作に異常は認められません。従って,直ちに衛星のミッションに影響す
  ることは無いと予想されますので,当面はアナログ系中継モードを継続します。
  衛星は既に打ち上げてから7年8ヶ月を経ておりますので,今後は監視を強化す
  る予定です。アマチュア各位のレポートをお待ちします.   
  
  以上  http://www.jarl.or.jp/Japanese/3_Fuji/fuji.htm
                                           
   =============   JAS-2 (ふじ3号)と現在までの情報   ===========
  
  A.電話によるふじ3号の運用情報
      社団法人日本アマチュア連盟によるサービス
           TEL .   03− 3942 − 1000
  B.アマチュア無線FAXサービス
      JARLによるふじ3号の軌道情報(オービットカレンダー)
         FAX No.  03− 3233 −0055
  C.WWWブラウザで情報を簡単に見れる人のためにJAS−2
     ふじ3号の衛星としての運用されるまでの名前)の概要、打ち上げ
     までの状況、運用中における状況を説明したホームページを紹介し
     ておきます.
     社団法人日本アマチュア無線連盟(JARL)のホームページ

          http://www.jarl.or.jp/Japanese/3_Fuji
 
     宇宙開発事業団(NASDA)ホームページ 
          http://www.nasda.go.jp/
         打上げ衛星 :地球観測プラットフォーム技術衛星(ADEOS) 
                       アマチュア衛星3号(JAS-2)
          http://yyy.tksc.nasda.go.jp/Home/Press/Press-j/jas-2_j.html        

  D.JAMSATによる軌道情報の活用
        JAMSATのホームページまたはjamsat−kepsの軌道要素より
      衛星の軌道情報を得る.
     JAMSATホームページ
               URL    http://www.jamsat.or.jp
       上記ホームページでは各地で行われるアマチュア通信衛星に関する
      ミューティングのお知らせや世界のアマチュア衛星に関する情報が
      満載されています.
   
 =========================================================================
       JAMSATのメンバーのご協力によりJH6MME(高山 秀造)が
    執筆・編集を担当しております.ご指摘の意見、疑問やこのようにしたら
    というアイデアがありましたら小さなことでもかまいませんので気軽に下
    記アドレスまでご連絡ください.jamsat−newsからjas2
    infoへの転載をJH4PHW局坂井さんに担当して頂いております.
                    E-mail : jh6mme@jamsat.or.jp : jh4phw@jamsat.or.jp
 ===============================   END  ===============================